SCP
-2 0 2 2 1 2 4 3 1 0 0 0 0 0 0 0 0 0 0 0 0 0
1 1 1 1 1 2 2 0 0 0 0 0 0 0 0 0 0 0 0 0 0 0
1 1 0 0 0 0 0 0 0 0 0 0 0 0 0 0 0 0 0 0 0 0
1 0 0 0 0 0 0 0 0 0 0 0 0 0 0 0 0 0 0 0 0 0
1 0 0 0 0 0 0 0 0 0 0 0 0 0 0 0 0 0 0 0 0 0
1 1 0 0 0 0 0 0 0 0 0 0 0 0 0 0 0 0 0 0 0 0
1 1 0 0 0 0 0 0 0 0 0 0 0 0 0 0 0 0 0 0 0 0
1 1 0 0 0 0 0 0 0 0 0 0 0 0 0 0 0 0 0 0 0 0
1 0 0 0 0 0 0 0 0 0 0 0 0 0 0 0 0 0 0 0 0 0
0 0 0 0 0 0 0 0 0 0 0 0 0 0 0 0 0 0 0 0 0 0
0 0 0 0 0 0 0 0 0 0 0 0 0 0 0 0 0 0 0 0 0 0
1 0 0 0 0 0 0 0 0 0 0 0 0 0 0 0 0 0 0 0 0 0
1 0 1 0 0 0 0 0 0 0 0 0 0 0 0 0 0 0 0 0 0 0
0 0 0 0 0 0 0 0 0 0 0 0 0 0 0 0 0 0 0 0 0 0
Wind_Speed_500mb
17 12 25 37 44 46 43 42 41 48 46 61 54 34 19 20 20 22 21 24 25 25
14 28 40 53 51 39 34 37 33 29 27 38 29 18 18 18 20 20 19 20 25 28
29 39 44 38 34 33 21 23 23 16 20 22 20 17 18 14 14 14 17 24 29 32
31 28 23 25 30 29 23 17 1 12 14 11 12 14 11 13 14 19 23 25 29 31
17 16 21 19 19 18 14 10 9 6 6 2 3 9 11 13 16 19 22 24 27 30
13 18 17 16 12 13 13 16 13 9 3 2 7 10 15 18 17 18 22 27 32 36
17 16 14 11 8 8 10 10 11 6 1 4 9 14 16 19 23 26 29 32 34 33
16 11 9 5 4 4 6 4 8 3 2 5 10 17 19 21 26 30 29 26 25 25
17 8 7 3 6 7 6 4 2 1 3 6 19 20 24 28 21 23 26 27 27 29
24 14 11 7 9 8 4 3 4 1 6 14 23 26 31 33 23 25 26 25 30 31
21 18 12 11 12 8 3 4 1 5 9 16 27 29 31 31 28 26 29 30 26 22
22 21 16 13 13 7 6 5 4 7 10 9 27 28 37 42 24 22 22 24 22 20
27 26 24 21 13 6 4 2 1 8 12 13 19 37 43 43 22 22 20 16 18 31
26 24 17 15 5 2 5 3 4 6 8 14 29 34 38 31 23 23 22 18 22 25
Wind_Direction_500mb
24 13 326 323 317 308 293 288 287 282 278 239 220 198 193 217 217 233 247 253 257 254
340 333 326 316 313 316 307 299 294 282 246 221 183 192 204 205 232 230 252 254 263 263
328 324 328 337 342 351 333 315 300 253 191 181 175 201 212 228 251 249 261 270 270 270
319 339 9 19 23 27 8 357 1 116 175 179 197 233 245 240 252 265 272 273 275 278
337 351 354 5 20 41 50 77 85 101 138 90 214 256 271 275 271 275 275 277 279 285
354 355 355 359 37 67 77 82 85 84 89 345 300 296 297 296 292 286 284 286 287 288
348 346 351 13 46 81 93 107 110 116 115 297 311 313 307 298 295 293 292 289 285 290
326 325 349 41 127 150 135 131 126 142 291 325 330 283 299 296 297 294 291 286 293 298
300 288 312 228 187 184 188 145 291 336 319 302 297 306 303 298 306 300 299 299 297 299
275 282 285 225 210 191 188 254 276 311 291 292 297 300 302 309 313 309 298 303 305 303
283 275 257 227 223 206 256 298 264 292 291 299 302 307 312 322 327 308 303 305 315 333
262 276 227 227 224 257 277 268 265 287 307 319 304 316 319 324 330 313 327 332 324 336
271 262 222 217 225 213 221 216 106 313 322 317 319 323 330 336 339 331 341 343 337 320
264 250 223 130 87 337 166 313 335 30 8 346 336 336 341 348 0 355 354 345 329 328
Wind_Speed_850mb
17 12 25 37 44 46 43 42 41 48 46 61 54 34 19 20 20 22 21 24 25 25
14 28 40 53 51 39 34 37 33 29 27 38 29 18 18 18 20 20 19 20 25 28
29 39 44 38 34 33 21 23 23 16 20 22 20 17 18 14 14 14 17 24 29 32
31 28 23 25 30 29 23 17 1 12 14 11 12 14 11 13 14 19 23 25 29 31
17 16 21 19 19 18 14 10 9 6 6 2 3 9 11 13 16 19 22 24 27 30
13 18 17 16 12 13 13 16 13 9 3 2 7 10 15 18 17 18 22 27 32 36
17 16 14 11 8 8 10 10 11 6 1 4 9 14 16 19 23 26 29 32 34 33
16 11 9 5 4 4 6 4 8 3 2 5 10 17 19 21 26 30 29 26 25 25
17 8 7 3 6 7 6 4 2 1 3 6 19 20 24 28 21 23 26 27 27 29
24 14 11 7 9 8 4 3 4 1 6 14 23 26 31 33 23 25 26 25 30 31
21 18 12 11 12 8 3 4 1 5 9 16 27 29 31 31 28 26 29 30 26 22
22 21 16 13 13 7 6 5 4 7 10 9 27 28 37 42 24 22 22 24 22 20
27 26 24 21 13 6 4 2 1 8 12 13 19 37 43 43 22 22 20 16 18 31
26 24 17 15 5 2 5 3 4 6 8 14 29 34 38 31 23 23 22 18 22 25
Wind_Direction_850mb
24 13 326 323 317 308 293 288 287 282 278 239 220 198 193 217 217 233 247 253 257 254
340 333 326 316 313 316 307 299 294 282 246 221 183 192 204 205 232 230 252 254 263 263
328 324 328 337 342 351 333 315 300 253 191 181 175 201 212 228 251 249 261 270 270 270
319 339 9 19 23 27 8 357 1 116 175 179 197 233 245 240 252 265 272 273 275 278
337 351 354 5 20 41 50 77 85 101 138 90 214 256 271 275 271 275 275 277 279 285
354 355 355 359 37 67 77 82 85 84 89 345 300 296 297 296 292 286 284 286 287 288
348 346 351 13 46 81 93 107 110 116 115 297 311 313 307 298 295 293 292 289 285 290
326 325 349 41 127 150 135 131 126 142 291 325 330 283 299 296 297 294 291 286 293 298
300 288 312 228 187 184 188 145 291 336 319 302 297 306 303 298 306 300 299 299 297 299
275 282 285 225 210 191 188 254 276 311 291 292 297 300 302 309 313 309 298 303 305 303
283 275 257 227 223 206 256 298 264 292 291 299 302 307 312 322 327 308 303 305 315 333
262 276 227 227 224 257 277 268 265 287 307 319 304 316 319 324 330 313 327 332 324 336
271 262 222 217 225 213 221 216 106 313 322 317 319 323 330 336 339 331 341 343 337 320
264 250 223 130 87 337 166 313 335 30 8 346 336 336 341 348 0 355 354 345 329 328